sat.trackr.live / text

‹ back to catalog

IRIDIUM 115

NORAD 42806 · 2017-039D

PAYLOAD ACTIVE UNKNOWN

§ Identity

Operator
Country
US
Launch date
2017-06-25
Launch site
AFWTR
Launch vehicle
Mass (kg)
RCS (m²)

Purposes: comms

External: N2YO · Heavens-Above · Gunter

§ Orbital elements

Epoch: 2026-09-20T04:06:27.468000Z

Period
99.77 min
Inclination
86.4444°
Eccentricity
0.0002287
Mean motion
14.43279630 rev/d
Perigee alt
746.1 km
Apogee alt
749.3 km
Semi-major
7,125.8 km
B*
1.5075e-5
RAAN
282.3849°
Arg perigee
86.3280°
Mean anomaly
273.8182°
Rev number
48,796

§ Raw data

IRIDIUM 1151 42806U 17039D   26263.17115125  .00000071  00000+0  15075-4 0  99912 42806  86.4444 282.3849 0002287  86.3280 273.8182 14.43279630487968

JSON: /api/v1/satellites/42806 · /tle

For live sub-satellite position, see the globe view (requires WebGL).

§ Visibility from observer

Set your observer location to see the next 7 days of passes ≥ 10°. The values pass through the URL so the page stays shareable.

No JS? Fill the form by hand. The geolocation button needs JavaScript.